Weather History for KSVN - January, 2014

Change the Weather History Date:

Thursday, January 16, 2014

  Actual Average Record
Temperature  
Mean Temperature 40 °F -  
Max Temperature 48 °F 59 °F 80 °F (2013)
Min Temperature 32 °F 37 °F 27 °F (2011)
Degree Days  
Heating Degree Days 25    
Moisture  
Dew Point 19 °F    
Average Humidity 44    
Maximum Humidity 72    
Minimum Humidity 22    
Precipitation  
Precipitation 0.00 in - - ()
Sea Level Pressure  
Sea Level Pressure 30.05 in    
Wind  
Wind Speed 10 mph (WNW)    
Max Wind Speed 16 mph    
Max Gust Speed 23 mph    
Visibility 10 miles    
Events      
Averages and records for this station are not official NWS values.
T = Trace of Precipitation, MM = Missing Value Source: NWS Daily Summary

Daily Weather History Graph

Daily Weather History Graph

Search for Another Location

Airport or City:

Trip Planner

Search our weather history database for the weather conditions in past years. The results will help you decide how hot, cold, wet, or windy it might be!

Date:

Astronomy

Jan. 16, 2014 Rise Set
Actual Time 7:25 AM EST 5:43 PM EST
Civil Twilight 6:58 AM EST 6:10 PM EST
Nautical Twilight 6:28 AM EST 6:40 PM EST
Astronomical Twilight 5:59 AM EST 7:09 PM EST
Moon 6:28 PM EST (1/16) 7:22 AM EST (1/16)
Length of Visible Light 11h 11m
Length of Day
10h 18m
Full, 100% of the Moon is Illuminated
Jan 16
Full
Jan 24
Last Quarter
Jan 30
New
Feb 6
First Quarter
Feb 14
Full

Hourly Weather History & Observations

Time (EST) Temp. Windchill Dew Point Humidity Pressure Visibility Wind Dir Wind Speed Gust Speed Precip Events Conditions
12:58 AM 46.9 °F - 28.9 °F 50% 29.95 in 10.0 mi NW 11.5 mph 21.9 mph N/A   Mostly Cloudy
1:58 AM 46.2 °F 40.5 °F 25.5 °F 44% 29.98 in 10.0 mi NW 12.7 mph - N/A   Mostly Cloudy
2:58 AM 45.0 °F 39.3 °F 21.6 °F 40% 29.99 in 10.0 mi NW 11.5 mph - N/A   Mostly Cloudy
3:58 AM 43.0 °F 37.7 °F 23.0 °F 45% 30.01 in 10.0 mi WNW 9.2 mph - N/A   Overcast
4:58 AM 38.7 °F 31.8 °F 22.6 °F 53% 30.02 in 10.0 mi WNW 10.4 mph - N/A   Clear
5:58 AM 35.8 °F 28.8 °F 23.0 °F 60% 30.04 in 10.0 mi West 9.2 mph - N/A   Clear
6:58 AM 33.4 °F 25.9 °F 23.4 °F 67% 30.04 in 10.0 mi WNW 9.2 mph - N/A   Clear
7:58 AM 32.9 °F 24.7 °F 24.6 °F 72% 30.07 in 10.0 mi West 10.4 mph - N/A   Clear
8:58 AM 36.5 °F 28.7 °F 21.7 °F 55% 30.08 in 10.0 mi WNW 11.5 mph - N/A   Clear
9:58 AM 39.6 °F 32.5 °F 18.0 °F 42% 30.08 in 10.0 mi WNW 11.5 mph - N/A   Clear
10:58 AM 42.4 °F 35.0 °F 14.5 °F 32% 30.09 in 10.0 mi WNW 15.0 mph - N/A   Clear
11:58 AM 45.0 °F 38.2 °F 12.0 °F 26% 30.06 in 10.0 mi NW 15.0 mph 20.7 mph N/A   Clear
12:09 PM 44.6 °F 37.4 °F 12.2 °F 27% 30.04 in 10.0 mi West 16.1 mph 23.0 mph N/A   Clear
12:58 PM 46.0 °F 39.6 °F 10.6 °F 24% 30.04 in 10.0 mi WNW 15.0 mph 23.0 mph N/A   Clear
1:58 PM 46.9 °F - 10.8 °F 23% 30.02 in 10.0 mi WNW 8.1 mph - N/A   Clear
2:14 PM 48.2 °F - 12.2 °F 24% 30.00 in 10.0 mi WNW 13.8 mph - N/A   Clear
2:58 PM 48.4 °F - 10.8 °F 22% 30.03 in 10.0 mi West 12.7 mph 18.4 mph N/A   Clear
3:58 PM 48.6 °F - 13.1 °F 24% 30.03 in 10.0 mi West 9.2 mph - N/A   Clear
4:58 PM 47.1 °F - 13.1 °F 25% 30.05 in 10.0 mi West 10.4 mph - N/A   Clear
5:58 PM 41.9 °F 39.0 °F 18.0 °F 38% 30.07 in 10.0 mi WSW 4.6 mph - N/A   Clear
6:58 PM 39.9 °F 37.8 °F 18.7 °F 42% 30.08 in 10.0 mi WSW 3.5 mph - N/A   Clear
7:58 PM 36.1 °F - 21.6 °F 56% 30.09 in 10.0 mi WSW 2.3 mph - N/A   Clear
8:58 PM 34.9 °F - 23.7 °F 64% 30.11 in 10.0 mi Calm Calm - N/A   Clear
9:58 PM 34.2 °F - 23.9 °F 66% 30.12 in 10.0 mi Calm Calm - N/A   Clear
10:58 PM 34.0 °F - 24.6 °F 69% 30.12 in 10.0 mi Calm Calm - N/A   Clear
11:58 PM 36.0 °F 31.1 °F 25.3 °F 65% 30.12 in 10.0 mi South 5.8 mph - N/A   Clear